ROMMA est une association bénévole à but non lucratif. Votre soutien est indispensable : ADHERER à ROMMA ou FAIRE un DON

Chambon - (38, Isère)

Oisans (2460 m)   Longitude: 06° 10' 42" E   Latitude: 45° 01' 32" N Station partenaire n°803
 

Détail journalier du     <<     >>

Température Humidité Vent Dir Rafale Dir. rafale Neige 1 Neige 2
Heure (°C) (%) (km/h) (km/h) (cm) (cm)
01:00 -1.610022O43O02
02:00 -2.510011SO34OSO030
03:00 -2.81009NE23NE010
04:00 -3.29911NE25NE00
05:00 -4.19912NE26NE00
06:00 -4.7999NE24NE00
07:00 -4.99912NNE28NNE00
08:00 -5.19814NNE29NNE08
09:00 -4.7979NNE24NNE08
10:00 -2.98811NNE24NNE06
11:00 -1.7839NNE20NNE07
12:00 -0.4797NE17ENE06
13:00 0.3807NE19ENE06
14:00 1.7724N13NE06
15:00 2.3794N16O06
16:00 3.6704OSO15OSO06
17:00 4.4704OSO14OSO06
18:00 4.7683OSO12OSO06
19:00 2.7534NE10NE06
20:00 3.1467NNE14NE06
21:00 5.2208NE15NE06
22:00 4.5247NE11NE06
23:00 4.5286NNE13NE06
minuit 4.4285NE10NE06

Graphique du 07-10-2019

 

Serveur OMMA